Location: Hepcat Sky Observatory
(29.9800°N, 95.6500°W)
Time: 23:10:00
(UTC-05:00)

Cosmos 2366 rocket - Visible Passes

Search period start: 16 October 2017 00:00
Search period end: 26 October 2017 00:00
Orbit: 954 x 998 km, 82.9° (Epoch: 16 October)

Date Brightness Start Highest point End Pass type
(mag) Time Alt. Az. Time Alt. Az. Time Alt. Az.
16 Oct 5.1 06:26:13 10° N 06:32:08 48° E 06:38:03 10° SSE visible
16 Oct 4.8 19:49:09 10° SSW 19:55:15 55° W 20:01:19 10° N visible
17 Oct 4.0 06:51:36 10° N 06:57:45 86° W 07:03:55 10° S visible
17 Oct 6.0 20:15:46 10° SW 20:21:00 28° WNW 20:26:13 10° NNW visible
18 Oct 6.5 05:33:18 10° NNE 05:37:45 21° ENE 05:42:12 10° ESE visible
18 Oct 6.9 20:43:57 10° WSW 20:46:56 14° WNW 20:49:55 10° NW visible
19 Oct 5.3 05:57:50 10° NNE 06:03:34 41° E 06:09:20 10° SSE visible
19 Oct 4.5 19:20:33 10° SSW 19:26:43 65° W 19:32:52 10° N visible
20 Oct 4.1 06:23:04 10° N 06:29:14 81° E 06:35:25 10° S visible
20 Oct 5.8 19:46:56 10° SW 19:52:26 33° W 19:57:55 10° NNW visible
21 Oct 6.6 05:05:13 10° NE 05:09:09 17° ENE 05:13:04 10° ESE visible
21 Oct 4.1 06:48:50 10° NNW 06:54:45 51° W 07:00:42 10° SSW visible
21 Oct 6.8 20:14:35 10° WSW 20:18:19 16° WNW 20:22:04 10° NW visible
22 Oct 5.5 05:29:28 10° NNE 05:35:01 34° E 05:40:34 10° SE visible
23 Oct 4.3 05:54:34 10° N 06:00:43 69° E 06:06:53 10° SSE visible
23 Oct 5.6 19:18:09 10° SSW 19:23:53 38° W 19:29:35 10° NNW visible
24 Oct 6.7 04:37:17 10° NE 04:40:32 14° ENE 04:43:46 10° ESE visible
24 Oct 4.0 06:20:12 10° NNW 06:26:15 61° W 06:32:20 10° S visible
24 Oct 6.7 19:45:24 10° WSW 19:49:43 19° WNW 19:54:01 10° NNW visible
25 Oct 5.7 05:01:09 10° NNE 05:06:26 29° ENE 05:11:44 10° SE visible
25 Oct 4.7 06:46:25 10° NNW 06:51:40 30° W 06:56:58 10° SSW visible
